DLH2CN EDDH-EDDF

Flight info

Callsign DLH2CN
Flight time 0h 49m
Altitude 30000
Route AMLUH1G AMLUH M852 DENIX DCT RIMET/N0405F310 T157 KOKEB/N0357F230 T157 KERAX KERAX4A
Aircraft A320/M-SDE2E3FGIJ1LORWXYZ/HB1

Departure

Time 2026-04-16 12:37
Airport Hamburg Helmut Schmidt Airport (EDDH)

Arrival

Time 2026-04-16 13:26
Airport Frankfurt Main Airport (EDDF)
Time Latitude Longitude Altitude Speed Heading
2026-04-16 12:14 53.63449 10.00314 48 ft 0 kts 86°
2026-04-16 12:14 53.63451 10.00315 47 ft 0 kts 86°
2026-04-16 12:30 53.63450 10.00302 48 ft 4 kts 86°
2026-04-16 12:30 53.63449 10.00257 46 ft 4 kts 101°
2026-04-16 12:30 53.63459 10.00222 43 ft 4 kts 153°
2026-04-16 12:30 53.63469 10.00215 44 ft 0 kts 175°
2026-04-16 12:34 53.63443 10.00205 43 ft 8 kts 207°
2026-04-16 12:34 53.63373 10.00159 48 ft 13 kts 177°
2026-04-16 12:34 53.63283 10.00171 48 ft 12 kts 176°
2026-04-16 12:34 53.63204 10.00181 48 ft 11 kts 175°
2026-04-16 12:35 53.63111 10.00193 48 ft 16 kts 175°
2026-04-16 12:35 53.63011 10.00121 48 ft 13 kts 212°
2026-04-16 12:35 53.62934 10.00026 48 ft 15 kts 232°
2026-04-16 12:35 53.62880 9.99861 47 ft 18 kts 243°
2026-04-16 12:36 53.62910 9.99709 45 ft 17 kts 333°
2026-04-16 12:36 53.63091 9.99551 46 ft 59 kts 333°
2026-04-16 12:36 53.63663 9.99057 48 ft 122 kts 333°
2026-04-16 12:36 53.64556 9.98261 162 ft 162 kts 330°
2026-04-16 12:37 53.65633 9.97368 546 ft 183 kts 331°
2026-04-16 12:37 53.66795 9.96412 1285 ft 184 kts 328°
2026-04-16 12:37 53.67958 9.95391 1843 ft 197 kts 329°
2026-04-16 12:37 53.69325 9.94667 2316 ft 216 kts 352°
2026-04-16 12:38 53.70853 9.94660 3061 ft 220 kts 356°
2026-04-16 12:38 53.72386 9.94961 3907 ft 229 kts 20°
2026-04-16 12:38 53.73596 9.96740 4719 ft 239 kts 62°
2026-04-16 12:38 53.74002 9.99473 5440 ft 250 kts 91°
2026-04-16 12:39 53.73594 10.02404 5863 ft 269 kts 122°
2026-04-16 12:39 53.72286 10.04682 6459 ft 275 kts 155°
2026-04-16 12:39 53.70525 10.05989 7262 ft 278 kts 161°
2026-04-16 12:39 53.68719 10.07236 8160 ft 283 kts 161°
2026-04-16 12:40 53.66886 10.08503 9054 ft 287 kts 161°
2026-04-16 12:40 53.65021 10.09794 9954 ft 292 kts 161°
2026-04-16 12:40 53.63108 10.11119 10549 ft 307 kts 161°
2026-04-16 12:40 53.61057 10.12538 10904 ft 328 kts 160°
2026-04-16 12:41 53.58921 10.14026 11578 ft 336 kts 160°
2026-04-16 12:41 53.56748 10.15544 12380 ft 340 kts 160°
2026-04-16 12:41 53.54548 10.17083 13143 ft 344 kts 160°
2026-04-16 12:41 53.52324 10.18635 13906 ft 349 kts 160°
2026-04-16 12:42 53.50070 10.20202 14596 ft 352 kts 161°
2026-04-16 12:42 53.47790 10.21777 15268 ft 356 kts 161°
2026-04-16 12:42 53.45515 10.23343 15934 ft 360 kts 161°
2026-04-16 12:42 53.43156 10.24964 16605 ft 363 kts 161°
2026-04-16 12:43 53.40835 10.26560 17264 ft 367 kts 161°
2026-04-16 12:43 53.38462 10.28191 17929 ft 371 kts 161°
2026-04-16 12:43 53.36065 10.29838 18560 ft 375 kts 161°
2026-04-16 12:43 53.33639 10.31503 19123 ft 378 kts 161°
2026-04-16 12:44 53.31198 10.33179 19678 ft 381 kts 161°
2026-04-16 12:44 53.28730 10.34876 20243 ft 385 kts 161°
2026-04-16 12:44 53.26244 10.36581 20776 ft 389 kts 161°
2026-04-16 12:44 53.23728 10.38300 21329 ft 392 kts 161°
2026-04-16 12:45 53.21189 10.40027 21849 ft 396 kts 161°
2026-04-16 12:45 53.18631 10.41765 22369 ft 400 kts 161°
2026-04-16 12:45 53.16040 10.43513 22884 ft 402 kts 163°
2026-04-16 12:45 53.13357 10.44777 23382 ft 401 kts 174°
2026-04-16 12:46 53.10595 10.45249 23849 ft 398 kts 184°
2026-04-16 12:46 53.07832 10.44993 24276 ft 398 kts 189°
2026-04-16 12:46 53.05067 10.44600 24710 ft 400 kts 189°
2026-04-16 12:46 53.02283 10.44220 25140 ft 403 kts 189°
2026-04-16 12:47 52.99479 10.43842 25563 ft 405 kts 189°
2026-04-16 12:47 52.96662 10.43462 25987 ft 407 kts 189°
2026-04-16 12:47 52.93838 10.43080 26402 ft 409 kts 189°
2026-04-16 12:47 52.90989 10.42692 26815 ft 411 kts 189°
2026-04-16 12:48 52.88127 10.42301 27216 ft 414 kts 189°
2026-04-16 12:48 52.85252 10.41911 27612 ft 416 kts 189°
2026-04-16 12:48 52.82360 10.41517 28009 ft 418 kts 189°
2026-04-16 12:48 52.79457 10.41121 28391 ft 420 kts 189°
2026-04-16 12:49 52.76530 10.40723 28766 ft 423 kts 189°
2026-04-16 12:49 52.73590 10.40327 29124 ft 425 kts 189°
2026-04-16 12:49 52.70632 10.39929 29521 ft 427 kts 189°
2026-04-16 12:49 52.67702 10.39532 29894 ft 430 kts 190°
2026-04-16 12:50 52.64713 10.39130 30165 ft 432 kts 189°
2026-04-16 12:50 52.61755 10.38740 30204 ft 419 kts 190°
2026-04-16 12:50 52.58909 10.38372 30205 ft 404 kts 190°
2026-04-16 12:50 52.56126 10.38004 30208 ft 400 kts 190°
2026-04-16 12:51 52.50596 10.37250 30214 ft 398 kts 191°
2026-04-16 12:51 52.45072 10.36500 30219 ft 398 kts 191°
2026-04-16 12:52 52.39548 10.35764 30214 ft 399 kts 191°
2026-04-16 12:52 52.34020 10.35031 30215 ft 398 kts 191°
2026-04-16 12:53 52.28490 10.34298 30187 ft 398 kts 191°
2026-04-16 12:53 52.22965 10.33562 30196 ft 399 kts 191°
2026-04-16 12:54 52.17436 10.32829 30191 ft 399 kts 191°
2026-04-16 12:54 52.11902 10.32095 30196 ft 399 kts 191°
2026-04-16 12:55 52.06355 10.31365 30165 ft 399 kts 192°
2026-04-16 12:55 52.00817 10.30643 30183 ft 400 kts 192°
2026-04-16 12:56 51.95255 10.29916 30189 ft 401 kts 192°
2026-04-16 12:56 51.89725 10.29199 30196 ft 402 kts 192°
2026-04-16 12:57 51.84150 10.28475 30199 ft 402 kts 191°
2026-04-16 12:57 51.78571 10.27749 30187 ft 402 kts 192°
2026-04-16 12:58 51.73899 10.27141 30192 ft 403 kts 192°
2026-04-16 12:58 51.68305 10.26414 30199 ft 404 kts 192°
2026-04-16 12:59 51.62704 10.25701 30203 ft 404 kts 192°
2026-04-16 13:00 51.54326 10.24617 30210 ft 405 kts 192°
2026-04-16 13:00 51.48700 10.23884 30216 ft 405 kts 192°
2026-04-16 13:01 51.43085 10.23170 30218 ft 405 kts 192°
2026-04-16 13:01 51.37467 10.22461 30215 ft 404 kts 192°
2026-04-16 13:01 51.34677 10.22111 29977 ft 400 kts 192°
2026-04-16 13:02 51.31917 10.21818 29694 ft 396 kts 190°
2026-04-16 13:02 51.29163 10.21677 29410 ft 395 kts 188°
2026-04-16 13:02 51.26419 10.21634 29131 ft 394 kts 187°
2026-04-16 13:02 51.23683 10.21637 28851 ft 393 kts 187°
2026-04-16 13:03 51.20953 10.21648 28577 ft 391 kts 187°
2026-04-16 13:03 51.18240 10.21637 28304 ft 389 kts 187°
2026-04-16 13:03 51.15537 10.21603 28039 ft 387 kts 188°
2026-04-16 13:03 51.12848 10.21554 27770 ft 386 kts 188°
2026-04-16 13:04 51.10168 10.21498 27478 ft 384 kts 188°
2026-04-16 13:04 51.07500 10.21438 27222 ft 383 kts 188°
2026-04-16 13:04 51.04833 10.21383 26959 ft 382 kts 188°
2026-04-16 13:04 51.02177 10.21335 26549 ft 382 kts 187°
2026-04-16 13:05 50.99537 10.21290 26022 ft 377 kts 187°
2026-04-16 13:05 50.96920 10.21247 25506 ft 375 kts 187°
2026-04-16 13:05 50.94326 10.21202 24999 ft 372 kts 187°
2026-04-16 13:05 50.91754 10.21045 24499 ft 365 kts 194°
2026-04-16 13:06 50.89318 10.20200 24009 ft 354 kts 205°
2026-04-16 13:06 50.87104 10.18648 23451 ft 344 kts 216°
2026-04-16 13:06 50.85172 10.16504 22878 ft 335 kts 226°
2026-04-16 13:06 50.83514 10.13970 22317 ft 330 kts 230°
2026-04-16 13:07 50.81892 10.11414 21764 ft 328 kts 230°
2026-04-16 13:07 50.80280 10.08891 21222 ft 325 kts 229°
2026-04-16 13:07 50.78676 10.06386 20689 ft 323 kts 229°
2026-04-16 13:07 50.77089 10.03910 20165 ft 320 kts 229°
2026-04-16 13:08 50.75503 10.01443 19653 ft 318 kts 229°
2026-04-16 13:08 50.73934 9.99004 19148 ft 316 kts 229°
2026-04-16 13:08 50.72376 9.96587 18654 ft 313 kts 229°
2026-04-16 13:08 50.70829 9.94183 18113 ft 311 kts 228°
2026-04-16 13:09 50.69292 9.91794 17548 ft 309 kts 228°
2026-04-16 13:09 50.67764 9.89425 16995 ft 307 kts 228°
2026-04-16 13:09 50.66245 9.87073 16443 ft 305 kts 228°
2026-04-16 13:09 50.64740 9.84742 15918 ft 303 kts 228°
2026-04-16 13:10 50.63246 9.82428 15385 ft 301 kts 228°
2026-04-16 13:10 50.61759 9.80128 14875 ft 298 kts 227°
2026-04-16 13:10 50.60284 9.77851 14363 ft 296 kts 227°
2026-04-16 13:10 50.58819 9.75592 13845 ft 294 kts 227°
2026-04-16 13:11 50.57365 9.73350 13273 ft 292 kts 227°
2026-04-16 13:11 50.55920 9.71125 12722 ft 289 kts 227°
2026-04-16 13:11 50.54490 9.68925 12173 ft 287 kts 227°
2026-04-16 13:11 50.53070 9.66743 11638 ft 285 kts 226°
2026-04-16 13:12 50.51656 9.64578 11250 ft 282 kts 226°
2026-04-16 13:12 50.50252 9.62427 11219 ft 283 kts 226°
2026-04-16 13:12 50.48845 9.60270 11222 ft 283 kts 226°
2026-04-16 13:12 50.47326 9.58292 11220 ft 286 kts 216°
2026-04-16 13:13 50.45557 9.56835 11006 ft 288 kts 206°
2026-04-16 13:13 50.43717 9.55587 10758 ft 287 kts 206°
2026-04-16 13:13 50.41891 9.54343 10519 ft 285 kts 206°
2026-04-16 13:13 50.40076 9.53106 10271 ft 284 kts 206°
2026-04-16 13:14 50.38268 9.51872 10091 ft 282 kts 206°
2026-04-16 13:14 50.36473 9.50643 9965 ft 282 kts 206°
2026-04-16 13:14 50.34704 9.49430 9826 ft 281 kts 206°
2026-04-16 13:14 50.32889 9.48185 9690 ft 281 kts 206°
2026-04-16 13:15 50.31101 9.46961 9555 ft 280 kts 206°
2026-04-16 13:15 50.29340 9.45758 9427 ft 280 kts 206°
2026-04-16 13:15 50.27554 9.44541 9292 ft 280 kts 206°
2026-04-16 13:15 50.25785 9.43300 9157 ft 278 kts 210°
2026-04-16 13:16 50.24221 9.41555 9022 ft 276 kts 225°
2026-04-16 13:16 50.23026 9.39248 8886 ft 273 kts 240°
2026-04-16 13:16 50.22253 9.36556 8761 ft 272 kts 251°
2026-04-16 13:16 50.21623 9.33772 8622 ft 272 kts 251°
2026-04-16 13:17 50.20988 9.30996 8500 ft 271 kts 251°
2026-04-16 13:17 50.20350 9.28230 8368 ft 271 kts 251°
2026-04-16 13:17 50.19709 9.25466 8245 ft 272 kts 251°
2026-04-16 13:17 50.19068 9.22701 7998 ft 270 kts 251°
2026-04-16 13:18 50.18429 9.19959 7699 ft 268 kts 250°
2026-04-16 13:18 50.17795 9.17234 7392 ft 266 kts 250°
2026-04-16 13:18 50.17165 9.14534 7092 ft 264 kts 251°
2026-04-16 13:18 50.16529 9.11842 6789 ft 264 kts 250°
2026-04-16 13:19 50.15895 9.09170 6499 ft 263 kts 251°
2026-04-16 13:19 50.15271 9.06499 6190 ft 262 kts 251°
2026-04-16 13:19 50.14656 9.03856 5883 ft 257 kts 251°
2026-04-16 13:19 50.14051 9.01260 5576 ft 253 kts 250°
2026-04-16 13:20 50.13455 8.98713 5270 ft 248 kts 250°
2026-04-16 13:20 50.12870 8.96212 4966 ft 243 kts 250°
2026-04-16 13:20 50.12307 8.93806 4652 ft 230 kts 251°
2026-04-16 13:20 50.11771 8.91521 4344 ft 219 kts 250°
2026-04-16 13:21 50.11258 8.89335 4070 ft 211 kts 250°
2026-04-16 13:21 50.10764 8.87231 4014 ft 205 kts 250°
2026-04-16 13:21 50.10272 8.85139 3862 ft 206 kts 250°
2026-04-16 13:21 50.09784 8.83065 3627 ft 201 kts 250°
2026-04-16 13:22 50.09321 8.81100 3397 ft 191 kts 250°
2026-04-16 13:22 50.08875 8.79207 3126 ft 182 kts 250°
2026-04-16 13:22 50.08447 8.77393 2886 ft 176 kts 249°
2026-04-16 13:22 50.08028 8.75623 2656 ft 173 kts 250°
2026-04-16 13:23 50.07619 8.73891 2436 ft 169 kts 250°
2026-04-16 13:23 50.07219 8.72202 2203 ft 169 kts 250°
2026-04-16 13:23 50.06824 8.70534 1977 ft 157 kts 250°
2026-04-16 13:23 50.06590 8.68976 1751 ft 142 kts 259°
2026-04-16 13:24 50.06446 8.67479 1472 ft 139 kts 262°
2026-04-16 13:24 50.06262 8.66041 1287 ft 133 kts 254°
2026-04-16 13:24 50.05942 8.64686 1136 ft 133 kts 246°
2026-04-16 13:24 50.05588 8.63365 1029 ft 131 kts 248°
2026-04-16 13:25 50.05273 8.62025 850 ft 133 kts 249°
2026-04-16 13:25 50.04966 8.60675 678 ft 132 kts 249°
2026-04-16 13:25 50.04661 8.59320 486 ft 131 kts 248°
2026-04-16 13:25 50.04345 8.57992 377 ft 129 kts 248°
2026-04-16 13:26 50.04072 8.56854 360 ft 90 kts 249°
2026-04-16 13:26 50.03910 8.56173 352 ft 49 kts 249°
2026-04-16 13:26 50.03890 8.55813 351 ft 24 kts 278°
2026-04-16 13:26 50.03916 8.55652 354 ft 9 kts 312°
2026-04-16 13:27 50.03961 8.55639 351 ft 4 kts 13°
2026-04-16 13:27 50.03979 8.55667 353 ft 10 kts 55°
2026-04-16 13:27 50.04002 8.55756 354 ft 7 kts 70°
2026-04-16 13:27 50.04015 8.55811 357 ft 6 kts 70°
2026-04-16 13:28 50.04033 8.55886 353 ft 9 kts 70°
2026-04-16 13:28 50.04072 8.55963 353 ft 8 kts 23°
2026-04-16 13:28 50.04108 8.55961 360 ft 3 kts 345°
2026-04-16 13:28 50.04125 8.55951 355 ft 4 kts 339°
2026-04-16 13:29 50.04167 8.55929 357 ft 9 kts 342°
2026-04-16 13:29 50.04229 8.55929 354 ft 8 kts 25°
2026-04-16 13:29 50.04280 8.55963 356 ft 11 kts
2026-04-16 13:29 50.04362 8.55919 359 ft 14 kts 343°
2026-04-16 13:30 50.04450 8.55921 357 ft 10 kts 16°
2026-04-16 13:30 50.04500 8.55944 363 ft 6 kts 17°
2026-04-16 13:30 50.04533 8.55961 359 ft 4 kts 23°
2026-04-16 13:30 50.04556 8.55991 360 ft 5 kts 53°
2026-04-16 13:31 50.04577 8.56060 361 ft 8 kts 68°
2026-04-16 13:31 50.04601 8.56160 361 ft 11 kts 70°
2026-04-16 13:31 50.04631 8.56288 360 ft 12 kts 69°
2026-04-16 13:31 50.04655 8.56390 356 ft 8 kts 75°
2026-04-16 13:32 50.04648 8.56450 358 ft 5 kts 126°
2026-04-16 13:32 50.04623 8.56472 359 ft 5 kts 164°
2026-04-16 13:32 50.04571 8.56454 356 ft 10 kts 203°
2026-04-16 13:32 50.04526 8.56407 362 ft 3 kts 227°
2026-04-16 13:33 50.04521 8.56399 361 ft 1 kts 223°
2026-04-16 13:33 50.04501 8.56397 357 ft 3 kts 173°
2026-04-16 13:33 50.04485 8.56408 357 ft 3 kts 155°
2026-04-16 13:33 50.04471 8.56417 361 ft 2 kts 155°
2026-04-16 13:34 50.04459 8.56426 359 ft 1 kts 154°
2026-04-16 13:34 50.04454 8.56430 364 ft 1 kts 154°
2026-04-16 13:34 50.04453 8.56431 364 ft 0 kts 154°
2026-04-16 13:34 50.04452 8.56431 364 ft 0 kts 154°